User: anonymous   Login
Location: Taipo
(41.0000°S, 175.9500°E)
Time: 03:50:28
(UTC+00:00)
Language:

FengYun 1-2 T - Orbit

View from above orbital plane
View from above orbital plane
View from above satellite
View from above satellite

Ground track
Ground track

The orbit data is extracted from the following two-line orbital elements,

1 20855U 90081T   24164.93361314  .00000046  00000-0  51371-4 0  9996
2 20855  98.7518 153.2006 0024904  50.5918   3.0914 14.08921785735900
Epoch (UTC): 12 June 2024 22:24:24
Eccentricity: 0.0024904
inclination: 98.7518°
perigee height: 845 km
apogee height: 881 km
right ascension of ascending node: 153.2006°
argument of perigee: 50.5918°
revolutions per day: 14.08921785
mean anomaly at epoch: 3.0914°
orbit number at epoch: 73590

The dashed part of the orbit path shows where the satellite is in the earth's shadow,  

DLR